Location: Rounton
(54.4000°N, 1.3500°W)
Time: 23:58:58
(UTC+01:00)

Vanguard 1 - Pass Details

Date: 26 February 2024
Orbit: 653 x 3825 km, 34.2° (Epoch: 22 April)

Event Time Altitude Azimuth Distance (km) Brightness Sun altitude
Rises 17:26:33 0° 182° (S) 5,067 14.0 0.3°
Reaches altitude 10° 17:31:38 10° 161° (SSE) 4,668 13.5 -0.4°
Maximum altitude 17:38:26 15° 130° (SE) 4,925 13.3 -1.3°
Drops below altitude 10° 17:46:58 10° 102° (ESE) 6,105 13.5 -2.6°
Enters shadow 17:53:20 - 89° (E) 7,229 13.8 -3.5°
Sets 17:55:39 0° 85° (E) 7,651 - -3.8°
